This demonstration page uses our WeatherBlox Daily Observations layout. Learn more.

Hourly Observations for January 11, 2020

Temp ( °F °C ) Dew Point ( °F °C ) Humidity (%) Winds ( mph kmh ) Pressure ( in mb ) Visibility ( mi km ) Precip ( " mm )
12:15 am 00:15 Cloudy 52 11 48 9 88 88 S 7 11 30.38 1029 10 16.0934 0 0
12:35 am 00:35 Cloudy 52 11 48 9 88 88 S 9 15 30.37 1029 10 16.0934 0 0
12:55 am 00:55 Cloudy 54 12 48 9 82 82 S 9 15 30.36 1028 10 16.0934 0 0
1:15 am 01:15 Cloudy 52 11 48 9 88 88 S 7 11 30.36 1028 10 16.0934 0 0
1:35 am 01:35 Mostly Cloudy 52 11 48 9 88 88 S 9 15 30.36 1028 10 16.0934 0 0
1:55 am 01:55 Mostly Cloudy 52 11 48 9 88 88 S 7 11 30.36 1028 10 16.0934 0 0
2:15 am 02:15 Mostly Cloudy 52 11 48 9 88 88 S 8 13 30.36 1028 10 16.0934 0 0
2:35 am 02:35 Partly Cloudy 52 11 48 9 88 88 S 12 19 30.35 1028 10 16.0934 0 0
2:55 am 02:55 Mostly Cloudy 52 11 48 9 88 88 S 14 22 30.35 1028 10 16.0934 0 0
3:15 am 03:15 Cloudy 52 11 48 9 88 88 S 12 19 30.34 1028 10 16.0934 0 0
3:35 am 03:35 Cloudy 52 11 48 9 88 88 S 9 15 30.33 1027 10 16.0934 0 0
3:55 am 03:55 Cloudy 52 11 48 9 88 88 S 9 15 30.33 1027 10 16.0934 0 0
4:15 am 04:15 Cloudy 52 11 48 9 88 88 S 8 13 30.33 1027 10 16.0934 0 0
4:35 am 04:35 Cloudy 52 11 48 9 88 88 S 7 11 30.32 1027 10 16.0934 0 0
4:55 am 04:55 Cloudy 52 11 48 9 88 88 S 7 11 30.31 1027 10 16.0934 0 0
5:15 am 05:15 Cloudy 52 11 48 9 88 88 SSE 3 6 30.31 1027 10 16.0934 0 0
5:35 am 05:35 Mostly Cloudy 52 11 48 9 88 88 SSE 5 7 30.3 1026 10 16.0934 0 0
5:55 am 05:55 Partly Cloudy 50 10 48 9 94 94 S 5 7 30.31 1026 10 16.0934 0 0
6:15 am 06:15 Mostly Cloudy 50 10 48 9 94 94 S 6 9 30.3 1026 10 16.0934 0 0
6:35 am 06:35 Cloudy 50 10 48 9 94 94 S 3 6 30.3 1026 10 16.0934 0 0
6:55 am 06:55 Cloudy 50 10 48 9 94 94 S 6 9 30.29 1026 10 16.0934 0 0
7:15 am 07:15 Cloudy 52 11 50 10 94 94 S 8 13 30.28 1026 10 16.0934 0 0
7:35 am 07:35 Cloudy 50 10 50 10 100 100 S 6 9 30.28 1025 10 16.0934 0 0
7:55 am 07:55 Cloudy 52 11 50 10 94 94 SSE 5 7 30.25 1025 10 16.0934 0 0
8:15 am 08:15 Mostly Cloudy 50 10 50 10 100 100 S 5 7 30.26 1025 10 16.0934 0 0
8:35 am 08:35 Cloudy 50 10 50 10 100 100 S 6 9 30.26 1025 10 16.0934 0 0
8:55 am 08:55 Mostly Cloudy 52 11 52 11 100 100 SW 6 9 30.26 1025 10 16.0934 0 0
9:15 am 09:15 Mostly Cloudy 54 12 52 11 94 94 WNW 3 6 30.25 1024 10 16.0934 0 0
9:35 am 09:35 Cloudy 54 12 52 11 94 94 WNW 5 7 30.26 1025 10 16.0934 0 0
9:55 am 09:55 Cloudy 54 12 52 11 94 94 W 3 6 30.25 1024 10 16.0934 0 0
10:15 am 10:15 Cloudy 55 13 54 12 94 94 Calm 30.23 1024 10 16.0934 0 0
10:35 am 10:35 Cloudy 55 13 54 12 94 94 Calm 30.23 1024 10 16.0934 0 0
10:55 am 10:55 Cloudy 57 14 54 12 88 88 SSW 5 7 30.21 1023 10 16.0934 0 0
11:15 am 11:15 Cloudy 59 15 55 13 88 88 WSW 5 7 30.21 1023 10 16.0934 0 0
11:35 am 11:35 Cloudy 59 15 55 13 88 88 SW 7 11 30.19 1022 10 16.0934 0 0
11:55 am 11:55 Cloudy 61 16 55 13 83 83 SSW 10 17 30.16 1021 10 16.0934 0 0
12:15 pm 12:15 Cloudy 61 16 57 14 88 88 SSW 15 24 30.16 1021 10 16.0934 0 0
12:35 pm 12:35 Cloudy 61 16 59 15 94 94 SSW 14 22 30.15 1021 7 11.26538 0 0
12:55 pm 12:55 Cloudy 61 16 59 15 94 94 SSW 14 22 30.14 1021 10 16.0934 0 0
1:15 pm 13:15 Cloudy 61 16 59 15 94 94 SW 13 20 30.13 1020 10 16.0934 0 0
1:35 pm 13:35 Cloudy 61 16 59 15 94 94 SW 12 19 30.11 1020 10 16.0934 0 0
1:55 pm 13:55 Cloudy 63 17 59 15 88 88 SSW 15 24 30.09 1019 10 16.0934 0 0
2:15 pm 14:15 Cloudy 63 17 59 15 88 88 SSW 14 22 30.08 1018 10 16.0934 0 0
2:35 pm 14:35 Cloudy 63 17 59 15 88 88 SSW 15 24 30.07 1018 10 16.0934 0 0
2:55 pm 14:55 Cloudy 64 18 59 15 83 83 SSW 15 24 30.04 1017 10 16.0934 0 0
3:15 pm 15:15 Cloudy 64 18 59 15 83 83 SSW 25 41 30.03 1017 10 16.0934 0 0
3:35 pm 15:35 Mostly Cloudy 66 19 59 15 78 78 SSW 26 43 30.01 1016 10 16.0934 0 0
3:55 pm 15:55 Mostly Cloudy 66 19 59 15 78 78 SSW 25 41 30.01 1016 10 16.0934 0 0
4:15 pm 16:15 Mostly Cloudy 66 19 61 16 83 83 SSW 17 28 30.02 1017 10 16.0934 0 0
4:35 pm 16:35 Cloudy 64 18 61 16 88 88 SSW 25 41 30.01 1016 10 16.0934 0 0
4:55 pm 16:55 Mostly Cloudy 64 18 61 16 88 88 SSW 21 33 30.01 1016 10 16.0934 0 0
5:15 pm 17:15 Mostly Cloudy 64 18 61 16 88 88 SSW 16 26 30.02 1017 10 16.0934 0 0
5:55 pm 17:55 Cloudy 64 18 61 16 88 88 SSW 18 30 30.03 1017 10 16.0934 0 0
6:15 pm 18:15 Cloudy 64 18 61 16 88 88 S 16 26 30.03 1017 10 16.0934 0 0
6:35 pm 18:35 Cloudy 64 18 61 16 88 88 S 20 31 30.02 1017 10 16.0934 0 0
6:55 pm 18:55 Cloudy 64 18 61 16 88 88 SSW 18 30 30.01 1016 10 16.0934 0 0
7:15 pm 19:15 Cloudy 64 18 61 16 88 88 S 21 33 30.01 1016 10 16.0934 0 0
7:35 pm 19:35 Cloudy 64 18 61 16 88 88 SSW 17 28 30 1016 10 16.0934 0 0
7:55 pm 19:55 Cloudy 64 18 61 16 88 88 SSW 15 24 29.99 1016 10 16.0934 0 0
8:15 pm 20:15 Cloudy 63 17 61 16 94 94 S 20 31 30 1016 5 8.0467 0 0
8:35 pm 20:35 Cloudy 63 17 63 17 100 100 S 15 24 29.98 1015 5 8.0467 0 0
8:55 pm 20:55 Cloudy 63 17 63 17 100 100 S 22 35 29.98 1015 10 16.0934 0 0
9:15 pm 21:15 Cloudy 63 17 63 17 100 100 S 20 31 29.97 1015 5 8.0467 0 0
9:35 pm 21:35 Cloudy 63 17 63 17 100 100 S 20 31 29.96 1014 7 11.26538 0 0
9:55 pm 21:55 Cloudy 63 17 63 17 100 100 S 18 30 29.95 1014 10 16.0934 0 0
10:15 pm 22:15 Cloudy 63 17 63 17 100 100 S 18 30 29.95 1014 7 11.26538 0 0
10:35 pm 22:35 Cloudy 63 17 63 17 100 100 S 17 28 29.94 1014 5 8.0467 0 0
10:55 pm 22:55 Cloudy 63 17 63 17 100 100 S 18 30 29.92 1013 4 6.43736 0 0
11:15 pm 23:15 Cloudy 63 17 63 17 100 100 S 18 30 29.91 1013 5 8.0467 0 0
11:35 pm 23:35 Cloudy 63 17 63 17 100 100 S 16 26 29.89 1012 10 16.0934 0 0
11:55 pm 23:55 Cloudy 63 17 63 17 100 100 S 17 28 29.87 1011 5 8.0467 0 0

Powered by AerisWeather